Regional Weather Roundup
Issued by NWS Wakefield, VA

Home | Current Version | Previous Version | Text Only | Print | Product List | Glossary On
Versions: 1 2 3 4 5 6 7 8 9 10 11 12 13 14 15 16 17 18 19 20 21 22 23 24 25 26 27
000
ASUS41 KAKQ 222310
RWRAKQ

REGIONAL WEATHER ROUNDUP
NATIONAL WEATHER SERVICE WAKEFIELD VA
700 PM EDT WED OCT 22 2014

Note: "fair" indicates few or no clouds below 12,000 feet with no
significant weather and/or obstructions to visibility. * = Denotes
station may not report precipitation (e.g., rain,snow,etc.),
thunder or fog.

VAZ042-051-052>054-056-230000-
NORTHERN VIRGINIA

CITY           SKY/WX    TMP DP  RH WIND       PRES   REMARKS
WASH NATIONAL  CLOUDY    58  48  69 NW13G21   29.94R
DULLES         MOCLDY    54  46  74 NW12      29.96R
FORT BELVOIR   CLOUDY    55  48  77 NW9       29.94S
QUANTICO       CLOUDY    56  47  71 NW13G22   29.95S
FREDERICKSBRG* CLOUDY    56  49  77 NW12G20   29.94S
STAFFORD*      CLOUDY    54  48  80 NW10      29.99R
WARRENTON      MOCLDY    55  50  86 NW12      29.96S
CULPEPER*      MOCLDY    55  46  71 N13G23    29.99R
MANASSAS*      CLOUDY    55  48  76 NW18G25   29.96
LEESBURG*      CLOUDY    55  48  76 N17       29.98R
WINCHESTER     MOCLDY    54  41  62 NW9G21    30.02R
FRONT ROYAL*   CLOUDY    52  43  71 NW10G21   30.02R
LURAY*         MOCLDY    54  45  71 N7G18     30.03S
$$

VAZ048-049-060>072-079>083-230000-
CENTRAL AND SOUTH CENTRAL VIRGINIA...AND NORTH CENTRAL NORTH CAROLINA

CITY           SKY/WX    TMP DP  RH WIND       PRES   REMARKS
RICHMOND       CLOUDY    56  48  74 NW14G21   29.94R
CHESTERFIELD*  CLOUDY    55  39  54 NW15G25   29.96R
PETERSBURG*    LGT RAIN  56  46  69 NW8       29.95S
HANOVER        CLOUDY    55  48  77 NW12G22   29.96R
TAPPAHANNOCK*  CLOUDY    54  49  83 NW10      29.92S
CHARLOTTSVILLE MOCLDY    55  43  63 N14G21    29.99S
ORANGE*        PTCLDY    55  45  67 W7        30.00R
LOUISA*        MOCLDY    54  46  76 NW9       29.97R
FARMVILLE*     PTCLDY    55  43  62 NW6       29.97R
CREWE*         MOCLDY    56  44  64 NW9G17    29.96R
FORT PICKETT*  CLOUDY    55  46  72 NW7       29.96R
LUNENBURG*     MOCLDY    56  47  71 N6        29.96S
SOUTH HILL*    PTCLDY    54  46  76 CALM      30.01S
LAWRENCEVILLE* CLOUDY    55  47  74 NW5       29.95S
ROANOKE RAPIDS MOCLDY    55  46  71 N9        29.95R
RALEIGH        PTCLDY    59  40  49 VRB6      29.99R
$$

VAZ088>098-230000-
SOUTHEAST VIRGINIA

CITY           SKY/WX    TMP DP  RH WIND       PRES   REMARKS
NORFOLK        CLOUDY    56  49  77 NW10G29   29.86R
VIRGINIA BEACH CLOUDY    58  51  78 NW24G35   29.84R
NORFOLK NAVAL  CLOUDY    58  50  75 NW28G37   29.88R
WEST POINT*    CLOUDY    56  50  79 NW8G18    29.92R
NEWPORT NEWS   CLOUDY    57  50  77 N14G24    29.89R
LANGLEY AFB    CLOUDY    55  52  87 NW21G29   29.88R
FORT EUSTIS    CLOUDY    56  56 100 NW17G29   29.88R
WILLIAMSBURG*  PTCLDY    55  52  88 NW10G24   29.91R
HR EXEC AP*    CLOUDY    55  48  76 NW8G16    29.91R
FRANKLIN*      CLOUDY    55  48  76 NW7G17    29.92R
WAKEFIELD      CLOUDY    56  48  74 N10       29.92R
$$

VAZ020-022-025-037-045-230000-
WEST CENTRAL AND SOUTHWEST VIRGINIA

CITY           SKY/WX    TMP DP  RH WIND       PRES   REMARKS
STAUNTON*      CLOUDY    53  40  61 NW12      30.05S
HOT SPRINGS VA CLOUDY    42  37  84 NW21G28   30.04S
LYNCHBURG      PTCLDY    55  40  56 VRB5      30.01S
DANVILLE       CLEAR     59  41  51 NW10      30.02R
SOUTH BOSTON*  NOT AVBL
MARTINSVILLE   CLEAR     52  41  65 NW8       30.08R
ROANOKE        PTCLDY    52  39  61 W12       30.08S
BLACKSBURG     PTCLDY    48  43  81 NW6       30.11S
DUBLIN*        CLOUDY    48  42  78 NW6       30.13S
MARION*        CLOUDY    46  39  78 W8        30.17S
HILLSVILLE*    CLOUDY    45  38  76 NW24      30.08F
RICHLANDS*     CLOUDY    44  43  94 NW5       30.18F FOG
WISE*          CLOUDY    43  43 100 NW5       30.21S FOG
ABINGDON*      CLOUDY    46  42  84 N5        30.19S
$$

MDZ021>025-VAZ099-100-230000-
SOUTHERN MARYLAND AND THE DELMARVA PENINSULA

CITY           SKY/WX    TMP DP  RH WIND       PRES   REMARKS
PATUXENT RIVER LGT RAIN  54  50  86 NW23G30   29.88R
BAY BRIDGE APT LGT RAIN  54  48  82 NW18G35   29.89S
LEONARDTOWN    CLOUDY    52  48  87 NW9       29.91S
DOVER          LGT RAIN  54  54 100 NW14G23   29.81S
GEORGETOWN     LGT RAIN  55  51  86 N14G22    29.82R
EASTON         DRIZZLE   55  55 100 N12G21    29.91
CAMBRIDGE      CLOUDY    55  52  88 NW15G25   29.86R VSB<1/4
SALISBURY      LGT RAIN  57  52  83 NW17G25   29.82R
OCEAN CITY     CLOUDY    55  51  86 N12G29    29.78R
WALLOPS ISLAND CLOUDY    57  51  80 N15G29    29.80R
ACCOMACK*      CLOUDY    55  50  82 N18G32    29.82R
$$

NCZ012>017-030>032-230000-
EASTERN NORTH CAROLINA

CITY           SKY/WX    TMP DP  RH WIND       PRES   REMARKS
ELIZABETH CITY CLOUDY    59  49  69 NW17G26   29.88R
AHOSKIE*       MOCLDY    56  46  70 NW8       29.94R
EDENTON*       CLOUDY    58  50  75 NW16      29.90S
CURRITUCK*     CLOUDY    56  49  76 NW9G17    29.87R
KILL DEVIL HLS CLOUDY    57  51  80 NW15G24   29.83S
MANTEO         CLOUDY    57  50  77 NW17G26   29.86R
CAPE HATTERAS  CLOUDY    58  52  80 NW15G29   29.87R
TARBORO*       CLOUDY    57  51  79 CALM      29.96R
GOLDSBORO      MOCLDY    62  47  57 NW5       29.94R
WASHINGTON     MOCLDY    58  49  71 NW5       29.93S
GREENVILLE     PTCLDY    57  50  77 N3        29.96R
NEW BERN       CLOUDY    60  49  66 NW5       29.94R
WILMINGTON     CLEAR     61  46  57 W7        29.96R
$$

VAZ048-230000-
ELSEWHERE

CITY           SKY/WX    TMP DP  RH WIND       PRES   REMARKS
HARRISBURG PA  CLOUDY    53  43  68 N16G30    29.97R
BALTIMORE      LGT RAIN  54  47  77 NW9G18    29.91R
ANNAPOLIS      LGT RAIN  55  49  80 NW18      29.90R
ANDREWS AFB    LGT RAIN  54  49  85 NW13      29.92R
WILMINGTON DE  CLOUDY    55  50  83 NW16G22   29.87R
PHILADELPHIA   RAIN      55  50  83 N16G32    29.85S
WILDWOOD NJ*   CLOUDY    54  46  76 N14G23    29.79S
ATLANTIC CITY  LGT RAIN  53  50  89 N17       29.77S
HENDERSON NC   CLOUDY    58  44  59 N3        29.97S
GREENSBORO     CLEAR     55  39  54 NW8       30.03S
ROCKY MOUNT    CLOUDY    60  46  59 NW5       29.95R
FAYETTEVILLE   PTCLDY    62  42  47 NW10      29.98R
CHARLOTTE      PTCLDY    57  38  48 N12       30.06R
$$

VAZ100-230000-
MARINE

STATION/POSITION TIME  TEMP    WIND        PRES    WAVE   SWELL
                       AIR SEA DIR/SP/G            HT/PER HT/PER
                 (UTC) (F)     (DEG/KT/KT) (MB)    (FT/S) (FT/S)
44066 TX TWR #4  2300   59 66   10/ 33/ 41 1000.9R
CAPE MAY NJ      2300   56 67  340/ 18/ 28 1008.1S
LEWES DE         2300   58 62   10/ 30/ 38 1008.8F
15NM E FENWICK I 2300   58 66  330/ 31/ 39 1005.8R  12/ 8   3/15
OCEAN-CITY-INLET 2300   57 64  360/ 22/ 30 1007.8R
WACHAPREAGUE VA  2300   57 63  340/  7/ 18 1009.4R
THOMAS POINT MD  2300   55 62  330/ 22/ 28 1012.9R
GOOSES REEF MD   2300   56     350/ 23/ 27 1012.2R
COVE POINT MD    2300   55     350/ 29/ 36 1011.5R
SOLOMONS ISLAND  2300      65                N/A
BISHOPS HEAD MD  2300   55 59  330/ 15/ 24 1010.5R
PINEY POINT MD   2300          350/ 22/ 28   N/A
POTOMAC MD       2300   56     350/ 19/ 25 1011.2R
CAMBRIDGE MD     2300   56 62  340/ 20/ 22 1010.9R
LEWISETTA VA     2300   56 62  340/ 19/ 29 1011.7S
RAPPAHANNOCK LGT 2300          320/ 36/ 41 1010.2R
STINGRAY PT      2300   57     340/ 23/ 27 1011.4R
YORK RVR RNG VA  2300   56     330/ 25/ 31 1010.8R
YORKTOWN VA      2300   56 66  320/ 23/ 27 1011.4R
JAMESTOWN VA     2300   55     350/ 19/ 23   N/A
DOMINION TERM VA 2300   57     350/ 19/ 23 1011.7R
KIPTOPEKE VA     2300      66  330/ 32/ 37   N/A
CHES BAY BRIDGE  2300   57 66  310/ 29/ 37 1010.2S
CHESAPEAKE LGHT  2200   58     320/ 36/ 40 1009.1R
WILLOUBY STN VA  2300   56     330/ 27/ 31 1010.2R
S CRANEY ISL VA  2300          300/ 17/ 25 1011.1R
CAPE HENRY BUOY  2300      68                N/A     8/ 5
1ST LANDING BUOY 2300   59     320/ 27/ 33 1010.0S
CAPE CHARLES BUO 2300      68                N/A     6/ 5   2/10
64NM E OF VA BCH 2300   62 69  320/ 29/ 35 1005.7R   6/ 6   2/ 9
DUCK PIER NC     2300   57 69  310/ 21/ 28 1009.4R
44100 DUCK FRF   2300      70                N/A     6/ 6
44056 DUCK FRF   2300                        N/A     4/ 6
OREGON INLET NC  2300   58 65  310/ 22/ 30 1010.1R
HATTERAS NC      2300   60 67  310/ 24/ 30 1011.6S
DIAMOND SHLS NC  2300   61     310/ 27/ 33 1010.4R   6/ 5   2/ 9
CAPE LOOKOUT NC  2300   61     330/ 10/ 12 1013.3R
$$



USA.gov is the U.S. government's official web portal to all federal, state and local government web resources and services.